QPF
0.08 0.08 0.12 0.17 0.16 0.11 0.09 0.09 0.07 0.07 0.07 0.09 0.10 0.11 0.10 0.08 0.08 0.11 0.15 0.15 0.15 0.15 0.14 0.13 0.14 0.11 0.09 0.08 0.07 0.05 0.03 0.04 0.06 0.10 0.13 0.16 0.12 0.09 0.09 0.09 0.08 0.06 0.07
0.08 0.10 0.16 0.16 0.13 0.10 0.11 0.11 0.09 0.09 0.08 0.08 0.09 0.09 0.10 0.11 0.09 0.11 0.13 0.15 0.16 0.14 0.11 0.10 0.11 0.10 0.08 0.06 0.05 0.03 0.02 0.03 0.04 0.06 0.07 0.08 0.09 0.08 0.07 0.07 0.08 0.07 0.06
0.12 0.11 0.11 0.12 0.11 0.08 0.07 0.09 0.09 0.08 0.08 0.08 0.08 0.10 0.11 0.13 0.09 0.07 0.08 0.10 0.11 0.09 0.06 0.07 0.08 0.07 0.06 0.05 0.03 0.03 0.03 0.04 0.04 0.05 0.05 0.05 0.08 0.08 0.06 0.09 0.09 0.08 0.06
0.11 0.10 0.10 0.09 0.07 0.05 0.03 0.04 0.05 0.06 0.06 0.08 0.10 0.09 0.09 0.10 0.07 0.05 0.06 0.06 0.06 0.06 0.04 0.04 0.04 0.04 0.04 0.03 0.03 0.03 0.04 0.04 0.04 0.03 0.03 0.04 0.05 0.07 0.04 0.06 0.06 0.05 0.04
0.08 0.07 0.09 0.07 0.05 0.03 0.03 0.03 0.03 0.04 0.06 0.08 0.09 0.08 0.07 0.06 0.04 0.04 0.06 0.05 0.05 0.05 0.04 0.04 0.04 0.03 0.03 0.02 0.03 0.03 0.04 0.04 0.04 0.03 0.02 0.02 0.02 0.04 0.03 0.03 0.05 0.03 0.03
0.06 0.06 0.06 0.05 0.03 0.02 0.02 0.03 0.03 0.04 0.05 0.06 0.08 0.08 0.06 0.05 0.04 0.05 0.06 0.06 0.05 0.04 0.03 0.03 0.03 0.03 0.02 0.02 0.02 0.03 0.04 0.05 0.04 0.02 0.02 0.02 0.02 0.04 0.03 0.03 0.03 0.02 0.03
0.04 0.04 0.05 0.04 0.02 0.03 0.03 0.03 0.04 0.05 0.07 0.09 0.10 0.07 0.04 0.04 0.04 0.05 0.05 0.04 0.03 0.03 0.02 0.02 0.02 0.02 0.02 0.02 0.02 0.03 0.05 0.05 0.02 0.02 0.02 0.03 0.02 0.03 0.04 0.03 0.03 0.03 0.04
0.02 0.02 0.03 0.04 0.03 0.04 0.05 0.04 0.05 0.08 0.11 0.11 0.08 0.06 0.04 0.03 0.04 0.04 0.04 0.03 0.03 0.02 0.02 0.01 0.02 0.01 0.01 0.02 0.02 0.03 0.05 0.04 0.02 0.03 0.05 0.12 0.05 0.04 0.04 0.04 0.04 0.05 0.04
0.03 0.02 0.04 0.04 0.05 0.06 0.06 0.07 0.09 0.12 0.13 0.10 0.07 0.05 0.03 0.03 0.04 0.05 0.05 0.04 0.03 0.02 0.02 0.01 0.02 0.01 0.01 0.02 0.02 0.03 0.04 0.04 0.03 0.03 0.03 0.06 0.04 0.04 0.05 0.05 0.08 0.07 0.04
0.06 0.06 0.08 0.08 0.06 0.07 0.09 0.16 0.16 0.13 0.10 0.08 0.07 0.05 0.04 0.05 0.07 0.07 0.05 0.04 0.03 0.03 0.03 0.03 0.02 0.01 0.01 0.01 0.02 0.03 0.04 0.04 0.05 0.04 0.05 0.05 0.03 0.04 0.05 0.08 0.07 0.05 0.04
0.05 0.06 0.09 0.14 0.15 0.13 0.12 0.15 0.14 0.12 0.10 0.08 0.07 0.07 0.06 0.06 0.08 0.07 0.05 0.05 0.06 0.06 0.06 0.04 0.03 0.04 0.04 0.03 0.05 0.06 0.06 0.04 0.07 0.05 0.04 0.04 0.03 0.04 0.06 0.06 0.04 0.04 0.05
0.04 0.05 0.05 0.12 0.17 0.15 0.11 0.09 0.08 0.08 0.07 0.06 0.05 0.06 0.07 0.08 0.07 0.05 0.07 0.08 0.08 0.08 0.08 0.06 0.05 0.05 0.03 0.05 0.07 0.06 0.05 0.06 0.14 0.08 0.05 0.05 0.04 0.05 0.05 0.05 0.04 0.04 0.03
0.04 0.04 0.04 0.08 0.12 0.13 0.13 0.10 0.09 0.07 0.06 0.06 0.05 0.06 0.08 0.06 0.06 0.07 0.07 0.08 0.08 0.07 0.07 0.07 0.05 0.03 0.04 0.07 0.07 0.07 0.09 0.11 0.17 0.11 0.06 0.06 0.06 0.06 0.06 0.06 0.05 0.05 0.03
0.04 0.04 0.04 0.05 0.07 0.08 0.11 0.10 0.09 0.08 0.08 0.08 0.06 0.05 0.04 0.04 0.05 0.07 0.07 0.07 0.08 0.07 0.06 0.07 0.04 0.03 0.05 0.06 0.06 0.10 0.12 0.13 0.09 0.06 0.06 0.06 0.06 0.08 0.08 0.08 0.07 0.05 0.04
0.04 0.04 0.04 0.04 0.05 0.05 0.06 0.08 0.11 0.10 0.09 0.07 0.05 0.05 0.04 0.04 0.06 0.07 0.07 0.07 0.08 0.07 0.06 0.05 0.04 0.04 0.05 0.05 0.05 0.05 0.08 0.09 0.06 0.05 0.05 0.06 0.07 0.09 0.11 0.10 0.08 0.06 0.04
0.03 0.03 0.02 0.03 0.03 0.04 0.06 0.07 0.11 0.08 0.07 0.06 0.06 0.06 0.05 0.06 0.06 0.06 0.06 0.06 0.06 0.05 0.04 0.04 0.04 0.05 0.05 0.06 0.07 0.05 0.07 0.07 0.06 0.05 0.06 0.08 0.08 0.06 0.06 0.08 0.09 0.09 0.09
0.01 0.02 0.02 0.01 0.02 0.03 0.04 0.06 0.07 0.06 0.06 0.07 0.07 0.07 0.07 0.08 0.07 0.06 0.06 0.05 0.04 0.04 0.04 0.03 0.04 0.04 0.04 0.05 0.06 0.06 0.06 0.07 0.05 0.05 0.06 0.06 0.07 0.06 0.06 0.06 0.07 0.07 0.10
0.01 0.01 0.01 0.01 0.02 0.03 0.03 0.03 0.04 0.04 0.05 0.06 0.06 0.07 0.07 0.06 0.06 0.05 0.04 0.04 0.03 0.03 0.04 0.05 0.05 0.06 0.05 0.05 0.06 0.05 0.05 0.05 0.03 0.04 0.04 0.05 0.06 0.05 0.05 0.07 0.06 0.05 0.07
0.01 0.01 0.02 0.02 0.02 0.02 0.02 0.03 0.02 0.03 0.03 0.04 0.05 0.06 0.06 0.05 0.04 0.03 0.02 0.02 0.03 0.03 0.03 0.03 0.05 0.04 0.03 0.04 0.04 0.04 0.04 0.03 0.03 0.04 0.05 0.05 0.04 0.04 0.04 0.04 0.06 0.07 0.07
0.00 0.01 0.02 0.02 0.02 0.01 0.02 0.03 0.04 0.04 0.04 0.04 0.05 0.05 0.04 0.03 0.03 0.02 0.02 0.03 0.03 0.03 0.04 0.04 0.06 0.04 0.03 0.04 0.05 0.05 0.06 0.03 0.03 0.05 0.06 0.05 0.05 0.06 0.06 0.05 0.05 0.04 0.04
0.00 0.01 0.01 0.02 0.02 0.01 0.02 0.03 0.02 0.02 0.03 0.03 0.03 0.03 0.02 0.02 0.02 0.03 0.04 0.07 0.04 0.03 0.04 0.04 0.04 0.04 0.04 0.05 0.06 0.07 0.08 0.07 0.04 0.04 0.04 0.04 0.04 0.04 0.05 0.04 0.03 0.02 0.03
0.01 0.01 0.01 0.01 0.01 0.01 0.01 0.01 0.01 0.01 0.02 0.02 0.04 0.03 0.03 0.02 0.02 0.03 0.03 0.02 0.02 0.03 0.02 0.03 0.05 0.05 0.04 0.04 0.05 0.05 0.05 0.05 0.05 0.04 0.05 0.05 0.04 0.05 0.06 0.03 0.03 0.04 0.03
0.01 0.01 0.00 0.01 0.01 0.01 0.01 0.01 0.02 0.02 0.02 0.03 0.03 0.04 0.03 0.02 0.01 0.02 0.03 0.02 0.02 0.02 0.03 0.05 0.05 0.04 0.04 0.04 0.03 0.04 0.04 0.03 0.03 0.04 0.05 0.05 0.04 0.03 0.03 0.03 0.03 0.03 0.03
0.02 0.02 0.01 0.01 0.02 0.01 0.01 0.01 0.02 0.02 0.03 0.02 0.03 0.04 0.03 0.03 0.03 0.03 0.03 0.03 0.02 0.02 0.03 0.04 0.04 0.03 0.04 0.04 0.03 0.02 0.04 0.02 0.02 0.03 0.02 0.02 0.02 0.02 0.01 0.02 0.02 0.03 0.02
0.04 0.03 0.01 0.01 0.01 0.01 0.01 0.01 0.02 0.03 0.04 0.04 0.04 0.04 0.05 0.04 0.04 0.02 0.03 0.04 0.03 0.01 0.02 0.02 0.02 0.02 0.03 0.02 0.03 0.03 0.02 0.01 0.01 0.02 0.01 0.01 0.01 0.02 0.01 0.01 0.01 0.02 0.02
0.04 0.01 0.00 0.01 0.01 0.01 0.02 0.03 0.04 0.05 0.05 0.04 0.04 0.05 0.04 0.04 0.03 0.02 0.03 0.04 0.03 0.03 0.03 0.01 0.01 0.02 0.02 0.02 0.02 0.01 0.02 0.01 0.02 0.03 0.01 0.01 0.01 0.01 0.02 0.01 0.01 0.01 0.03
MSLP
1013.40 1012.66 1012.09 1011.74 1011.60 1011.61 1011.65 1011.62 1011.43 1011.07 1010.54 1009.94 1009.36 1008.88 1008.55 1008.37 1008.30 1008.27 1008.22 1008.10 1007.91 1007.67 1007.44 1007.30 1007.29 1007.43 1007.72 1008.10 1008.53 1008.94 1009.30 1009.62 1009.90 1010.18 1010.50 1010.87 1011.30 1011.75 1012.20 1012.60 1012.94 1013.21 1013.42
1013.33 1012.68 1012.18 1011.87 1011.76 1011.77 1011.81 1011.79 1011.62 1011.30 1010.84 1010.31 1009.81 1009.40 1009.13 1009.00 1008.96 1008.97 1008.96 1008.89 1008.76 1008.60 1008.44 1008.35 1008.36 1008.49 1008.72 1009.01 1009.31 1009.60 1009.85 1010.08 1010.31 1010.57 1010.89 1011.26 1011.69 1012.14 1012.57 1012.95 1013.26 1013.49 1013.68
1013.19 1012.63 1012.20 1011.94 1011.84 1011.86 1011.90 1011.89 1011.76 1011.50 1011.12 1010.70 1010.29 1009.97 1009.75 1009.65 1009.62 1009.62 1009.59 1009.52 1009.41 1009.26 1009.14 1009.08 1009.11 1009.23 1009.42 1009.65 1009.88 1010.10 1010.30 1010.49 1010.71 1010.97 1011.30 1011.68 1012.11 1012.54 1012.94 1013.28 1013.54 1013.75 1013.92
1013.01 1012.56 1012.20 1011.98 1011.91 1011.93 1011.98 1011.98 1011.89 1011.70 1011.42 1011.10 1010.79 1010.55 1010.38 1010.29 1010.24 1010.21 1010.14 1010.04 1009.91 1009.77 1009.67 1009.63 1009.67 1009.78 1009.96 1010.16 1010.36 1010.54 1010.72 1010.91 1011.13 1011.41 1011.74 1012.13 1012.54 1012.93 1013.28 1013.57 1013.79 1013.97 1014.13
1012.84 1012.49 1012.22 1012.06 1012.01 1012.04 1012.09 1012.11 1012.05 1011.92 1011.72 1011.49 1011.27 1011.09 1010.97 1010.88 1010.81 1010.73 1010.62 1010.49 1010.34 1010.20 1010.12 1010.10 1010.16 1010.29 1010.46 1010.64 1010.82 1011.00 1011.17 1011.36 1011.59 1011.88 1012.21 1012.59 1012.96 1013.30 1013.59 1013.81 1013.99 1014.15 1014.31
1012.74 1012.50 1012.32 1012.21 1012.20 1012.23 1012.28 1012.30 1012.26 1012.16 1012.01 1011.85 1011.70 1011.57 1011.47 1011.39 1011.30 1011.19 1011.06 1010.90 1010.75 1010.63 1010.57 1010.59 1010.67 1010.81 1010.98 1011.15 1011.32 1011.48 1011.64 1011.83 1012.06 1012.35 1012.68 1013.02 1013.35 1013.63 1013.85 1014.02 1014.15 1014.28 1014.45
1012.74 1012.60 1012.50 1012.47 1012.48 1012.52 1012.55 1012.55 1012.50 1012.40 1012.28 1012.15 1012.04 1011.94 1011.87 1011.79 1011.70 1011.58 1011.44 1011.29 1011.16 1011.07 1011.05 1011.10 1011.20 1011.35 1011.51 1011.67 1011.81 1011.94 1012.09 1012.27 1012.49 1012.77 1013.08 1013.40 1013.68 1013.91 1014.07 1014.18 1014.27 1014.39 1014.56
1012.84 1012.79 1012.77 1012.79 1012.83 1012.86 1012.87 1012.83 1012.75 1012.63 1012.50 1012.38 1012.28 1012.21 1012.15 1012.09 1012.01 1011.90 1011.77 1011.65 1011.55 1011.50 1011.52 1011.59 1011.72 1011.87 1012.01 1012.13 1012.24 1012.34 1012.45 1012.61 1012.82 1013.09 1013.39 1013.68 1013.94 1014.13 1014.25 1014.32 1014.38 1014.48 1014.65
1013.00 1013.02 1013.07 1013.13 1013.19 1013.21 1013.18 1013.09 1012.96 1012.80 1012.65 1012.52 1012.44 1012.38 1012.34 1012.29 1012.23 1012.15 1012.05 1011.96 1011.89 1011.88 1011.92 1012.01 1012.14 1012.27 1012.38 1012.47 1012.53 1012.59 1012.67 1012.81 1013.01 1013.27 1013.57 1013.86 1014.11 1014.29 1014.40 1014.45 1014.49 1014.58 1014.75
1013.17 1013.24 1013.34 1013.43 1013.49 1013.50 1013.42 1013.28 1013.10 1012.90 1012.73 1012.59 1012.51 1012.47 1012.45 1012.44 1012.40 1012.34 1012.27 1012.20 1012.15 1012.15 1012.21 1012.29 1012.41 1012.51 1012.58 1012.63 1012.65 1012.67 1012.72 1012.84 1013.04 1013.30 1013.61 1013.92 1014.19 1014.39 1014.51 1014.57 1014.62 1014.70 1014.85
1013.30 1013.40 1013.52 1013.64 1013.69 1013.67 1013.56 1013.38 1013.15 1012.93 1012.74 1012.61 1012.54 1012.53 1012.54 1012.55 1012.54 1012.50 1012.43 1012.37 1012.33 1012.32 1012.35 1012.42 1012.50 1012.56 1012.60 1012.60 1012.59 1012.58 1012.62 1012.73 1012.93 1013.21 1013.54 1013.88 1014.18 1014.43 1014.59 1014.68 1014.75 1014.84 1014.98
1013.36 1013.47 1013.61 1013.72 1013.77 1013.72 1013.58 1013.37 1013.12 1012.89 1012.70 1012.59 1012.55 1012.56 1012.61 1012.65 1012.66 1012.63 1012.56 1012.49 1012.42 1012.38 1012.38 1012.40 1012.44 1012.46 1012.47 1012.45 1012.41 1012.39 1012.42 1012.53 1012.73 1013.02 1013.37 1013.75 1014.10 1014.40 1014.62 1014.77 1014.87 1014.97 1015.11
1013.34 1013.46 1013.59 1013.70 1013.73 1013.66 1013.51 1013.28 1013.03 1012.80 1012.64 1012.55 1012.55 1012.60 1012.68 1012.74 1012.77 1012.74 1012.67 1012.56 1012.46 1012.37 1012.32 1012.29 1012.29 1012.28 1012.26 1012.23 1012.19 1012.17 1012.20 1012.31 1012.50 1012.80 1013.16 1013.56 1013.95 1014.29 1014.58 1014.79 1014.95 1015.08 1015.22
1013.27 1013.39 1013.51 1013.60 1013.62 1013.54 1013.38 1013.16 1012.92 1012.72 1012.58 1012.53 1012.55 1012.64 1012.74 1012.82 1012.86 1012.83 1012.74 1012.62 1012.47 1012.34 1012.24 1012.17 1012.12 1012.09 1012.06 1012.03 1012.00 1011.99 1012.02 1012.12 1012.31 1012.58 1012.93 1013.33 1013.73 1014.11 1014.45 1014.72 1014.94 1015.12 1015.28
1013.19 1013.30 1013.41 1013.48 1013.49 1013.41 1013.25 1013.05 1012.84 1012.66 1012.54 1012.51 1012.56 1012.66 1012.78 1012.87 1012.92 1012.89 1012.80 1012.66 1012.49 1012.33 1012.19 1012.09 1012.01 1011.97 1011.94 1011.92 1011.90 1011.90 1011.93 1012.02 1012.17 1012.41 1012.71 1013.07 1013.46 1013.86 1014.22 1014.55 1014.82 1015.04 1015.23
1013.12 1013.22 1013.32 1013.37 1013.37 1013.30 1013.16 1012.99 1012.80 1012.65 1012.55 1012.53 1012.57 1012.66 1012.77 1012.87 1012.92 1012.90 1012.83 1012.69 1012.53 1012.36 1012.21 1012.09 1012.01 1011.96 1011.94 1011.93 1011.93 1011.94 1011.97 1012.02 1012.13 1012.30 1012.53 1012.83 1013.17 1013.54 1013.91 1014.26 1014.57 1014.84 1015.06
1013.07 1013.16 1013.24 1013.29 1013.29 1013.24 1013.14 1013.00 1012.85 1012.71 1012.61 1012.57 1012.58 1012.64 1012.72 1012.80 1012.86 1012.87 1012.83 1012.73 1012.60 1012.46 1012.32 1012.21 1012.12 1012.08 1012.06 1012.06 1012.07 1012.08 1012.10 1012.13 1012.18 1012.27 1012.41 1012.62 1012.88 1013.20 1013.54 1013.89 1014.22 1014.52 1014.77
1013.04 1013.11 1013.17 1013.22 1013.24 1013.23 1013.18 1013.09 1012.97 1012.84 1012.73 1012.65 1012.60 1012.60 1012.64 1012.70 1012.76 1012.81 1012.82 1012.79 1012.72 1012.62 1012.52 1012.42 1012.34 1012.29 1012.27 1012.28 1012.29 1012.30 1012.31 1012.31 1012.30 1012.32 1012.37 1012.48 1012.65 1012.88 1013.16 1013.48 1013.81 1014.11 1014.37
1013.00 1013.04 1013.09 1013.15 1013.20 1013.24 1013.25 1013.22 1013.15 1013.04 1012.91 1012.77 1012.66 1012.59 1012.57 1012.60 1012.67 1012.75 1012.83 1012.88 1012.88 1012.85 1012.79 1012.70 1012.63 1012.57 1012.54 1012.54 1012.55 1012.56 1012.56 1012.54 1012.50 1012.45 1012.42 1012.43 1012.50 1012.63 1012.84 1013.10 1013.38 1013.66 1013.90
1012.93 1012.94 1012.98 1013.04 1013.14 1013.24 1013.34 1013.39 1013.37 1013.29 1013.14 1012.96 1012.78 1012.63 1012.55 1012.55 1012.62 1012.75 1012.89 1013.02 1013.11 1013.14 1013.11 1013.04 1012.96 1012.88 1012.83 1012.80 1012.81 1012.82 1012.82 1012.80 1012.75 1012.66 1012.57 1012.50 1012.47 1012.50 1012.60 1012.78 1012.99 1013.22 1013.43
1012.82 1012.80 1012.81 1012.89 1013.03 1013.22 1013.40 1013.55 1013.61 1013.57 1013.43 1013.21 1012.98 1012.77 1012.63 1012.59 1012.67 1012.82 1013.03 1013.23 1013.39 1013.47 1013.47 1013.41 1013.31 1013.20 1013.11 1013.06 1013.05 1013.07 1013.09 1013.08 1013.04 1012.94 1012.82 1012.68 1012.56 1012.49 1012.49 1012.56 1012.69 1012.84 1013.00
1012.68 1012.62 1012.61 1012.70 1012.89 1013.15 1013.44 1013.68 1013.84 1013.86 1013.75 1013.53 1013.26 1013.00 1012.82 1012.76 1012.83 1013.01 1013.25 1013.51 1013.72 1013.84 1013.85 1013.78 1013.64 1013.49 1013.36 1013.28 1013.27 1013.29 1013.34 1013.37 1013.35 1013.27 1013.13 1012.95 1012.77 1012.60 1012.50 1012.45 1012.48 1012.55 1012.64
1012.51 1012.42 1012.40 1012.50 1012.73 1013.05 1013.43 1013.78 1014.03 1014.13 1014.08 1013.88 1013.61 1013.33 1013.12 1013.04 1013.10 1013.28 1013.55 1013.84 1014.07 1014.20 1014.22 1014.12 1013.96 1013.76 1013.60 1013.49 1013.47 1013.51 1013.59 1013.66 1013.68 1013.63 1013.49 1013.29 1013.05 1012.81 1012.60 1012.45 1012.37 1012.35 1012.37
1012.34 1012.24 1012.21 1012.31 1012.55 1012.93 1013.38 1013.82 1014.16 1014.36 1014.37 1014.22 1013.97 1013.70 1013.49 1013.39 1013.44 1013.62 1013.89 1014.17 1014.41 1014.54 1014.54 1014.43 1014.23 1014.01 1013.82 1013.70 1013.67 1013.73 1013.84 1013.95 1014.01 1013.99 1013.87 1013.65 1013.37 1013.06 1012.77 1012.52 1012.35 1012.24 1012.19
1012.18 1012.09 1012.05 1012.15 1012.40 1012.80 1013.30 1013.80 1014.23 1014.50 1014.59 1014.51 1014.31 1014.07 1013.86 1013.76 1013.79 1013.95 1014.20 1014.47 1014.69 1014.81 1014.81 1014.68 1014.47 1014.24 1014.04 1013.92 1013.90 1013.98 1014.11 1014.25 1014.34 1014.34 1014.22 1014.00 1013.68 1013.32 1012.96 1012.64 1012.39 1012.21 1012.11
1012.04 1011.97 1011.94 1012.03 1012.28 1012.68 1013.20 1013.74 1014.22 1014.56 1014.72 1014.71 1014.57 1014.37 1014.18 1014.08 1014.10 1014.24 1014.46 1014.70 1014.90 1015.01 1015.00 1014.88 1014.68 1014.46 1014.28 1014.18 1014.17 1014.27 1014.41 1014.57 1014.67 1014.67 1014.56 1014.31 1013.98 1013.58 1013.18 1012.80 1012.50 1012.27 1012.11
Thickness
5769 5773 5775 5777 5779 5780 5781 5782 5782 5783 5783 5783 5783 5783 5783 5783 5783 5783 5782 5782 5781 5781 5780 5779 5777 5776 5775 5775 5773 5772 5770 5768 5766 5764 5762 5761 5759 5757 5755 5754 5753 5751 5750
5773 5774 5775 5776 5777 5779 5779 5780 5780 5781 5782 5782 5782 5782 5782 5782 5782 5781 5781 5781 5780 5780 5779 5779 5777 5775 5774 5773 5772 5770 5768 5767 5765 5763 5761 5759 5757 5755 5754 5753 5751 5750 5749
5774 5775 5775 5776 5777 5778 5778 5779 5779 5779 5780 5780 5781 5781 5781 5781 5781 5780 5780 5780 5779 5779 5778 5778 5777 5775 5774 5772 5771 5769 5767 5765 5764 5762 5760 5758 5756 5755 5753 5751 5750 5749 5748
5775 5775 5776 5777 5777 5777 5778 5778 5778 5778 5779 5779 5779 5779 5779 5779 5779 5779 5779 5779 5779 5778 5778 5777 5776 5774 5773 5772 5770 5768 5766 5764 5762 5761 5759 5758 5756 5754 5753 5751 5749 5748 5747
5776 5776 5776 5777 5777 5777 5777 5777 5778 5778 5778 5778 5778 5779 5779 5778 5779 5778 5778 5778 5778 5777 5776 5775 5774 5773 5772 5771 5770 5767 5765 5763 5761 5759 5758 5757 5756 5754 5752 5750 5749 5747 5746
5776 5777 5777 5777 5777 5777 5777 5777 5778 5778 5778 5778 5777 5778 5778 5778 5778 5777 5777 5777 5777 5776 5775 5774 5773 5772 5771 5771 5769 5767 5764 5762 5760 5759 5757 5756 5755 5753 5752 5751 5749 5747 5745
5776 5777 5777 5777 5777 5777 5777 5778 5777 5778 5778 5778 5778 5777 5778 5777 5777 5776 5776 5775 5775 5774 5773 5773 5772 5770 5770 5769 5768 5766 5764 5761 5760 5758 5756 5755 5754 5753 5752 5750 5748 5746 5745
5777 5777 5776 5776 5776 5777 5777 5777 5777 5777 5777 5778 5778 5778 5777 5777 5776 5775 5775 5774 5774 5773 5772 5772 5771 5769 5768 5767 5766 5765 5763 5761 5759 5758 5756 5755 5754 5753 5751 5750 5747 5746 5744
5777 5777 5776 5776 5776 5776 5776 5778 5777 5777 5776 5776 5776 5776 5776 5776 5775 5775 5774 5774 5773 5773 5772 5771 5770 5768 5767 5766 5765 5764 5763 5761 5759 5757 5755 5754 5753 5752 5751 5749 5746 5744 5743
5777 5776 5776 5775 5775 5775 5776 5776 5776 5776 5776 5775 5775 5775 5775 5774 5774 5774 5773 5773 5773 5772 5772 5771 5770 5768 5767 5766 5765 5763 5762 5760 5758 5757 5755 5754 5753 5752 5750 5748 5746 5744 5742
5775 5775 5775 5775 5774 5774 5775 5774 5774 5774 5774 5774 5774 5774 5773 5773 5772 5772 5772 5772 5772 5771 5771 5771 5769 5768 5767 5766 5765 5763 5762 5759 5758 5756 5755 5754 5753 5752 5750 5748 5746 5744 5742
5772 5774 5775 5775 5774 5774 5774 5774 5773 5773 5772 5772 5772 5772 5771 5771 5771 5771 5771 5771 5771 5771 5770 5770 5769 5768 5767 5766 5764 5763 5761 5759 5757 5756 5755 5754 5752 5751 5749 5748 5746 5744 5742
5776 5776 5777 5776 5775 5775 5774 5774 5773 5772 5771 5771 5771 5771 5770 5770 5770 5769 5770 5769 5770 5769 5769 5768 5768 5767 5766 5765 5764 5762 5761 5759 5757 5756 5754 5753 5752 5751 5749 5748 5745 5744 5742
5778 5778 5778 5779 5777 5776 5775 5774 5773 5772 5771 5770 5770 5770 5770 5769 5769 5768 5768 5769 5768 5768 5768 5767 5766 5766 5765 5764 5764 5763 5761 5759 5757 5756 5754 5753 5752 5750 5749 5747 5745 5743 5742
5780 5779 5780 5780 5779 5777 5776 5775 5773 5772 5772 5771 5771 5770 5770 5769 5768 5768 5768 5767 5767 5767 5767 5766 5765 5765 5764 5763 5762 5762 5760 5759 5757 5755 5754 5753 5752 5750 5748 5746 5745 5743 5741
5783 5782 5782 5781 5780 5779 5777 5776 5774 5773 5772 5771 5770 5770 5770 5769 5769 5768 5767 5767 5766 5766 5766 5766 5765 5765 5763 5762 5761 5760 5759 5757 5756 5754 5752 5751 5750 5749 5747 5745 5744 5743 5741
5786 5785 5784 5782 5781 5780 5778 5777 5775 5773 5772 5771 5770 5770 5770 5769 5769 5768 5767 5767 5767 5767 5767 5766 5765 5764 5763 5761 5760 5759 5757 5756 5754 5753 5751 5749 5748 5747 5746 5744 5743 5742 5740
5789 5787 5786 5786 5782 5780 5779 5777 5776 5774 5773 5772 5771 5770 5770 5769 5769 5768 5768 5767 5767 5767 5767 5765 5764 5762 5760 5759 5757 5756 5755 5754 5753 5752 5750 5748 5747 5745 5744 5743 5742 5741 5739
5793 5789 5786 5785 5783 5782 5780 5778 5777 5775 5773 5772 5771 5770 5770 5769 5769 5768 5767 5767 5767 5766 5766 5766 5763 5761 5758 5756 5755 5754 5753 5752 5751 5750 5748 5746 5744 5743 5742 5741 5740 5739 5737
5796 5792 5789 5786 5784 5783 5781 5778 5776 5774 5773 5772 5771 5770 5770 5769 5769 5768 5767 5767 5767 5765 5764 5763 5761 5760 5758 5755 5754 5751 5750 5749 5748 5747 5746 5744 5742 5741 5740 5739 5737 5736 5735
5796 5792 5789 5786 5784 5783 5779 5776 5773 5771 5771 5771 5771 5771 5770 5770 5769 5769 5768 5767 5766 5764 5762 5761 5759 5757 5754 5754 5749 5745 5745 5746 5745 5744 5743 5741 5739 5738 5737 5736 5734 5733 5732
5796 5794 5791 5788 5786 5784 5782 5780 5777 5774 5773 5772 5772 5772 5771 5771 5770 5770 5769 5768 5766 5764 5761 5760 5758 5754 5752 5752 5747 5740 5734 5735 5738 5741 5740 5738 5736 5736 5734 5733 5731 5730 5729
5798 5796 5795 5791 5789 5787 5785 5782 5779 5775 5773 5771 5770 5770 5771 5771 5770 5770 5770 5768 5766 5764 5761 5760 5758 5754 5750 5750 5750 5743 5733 5727 5730 5734 5735 5735 5734 5733 5732 5730 5729 5727 5726
5803 5800 5797 5794 5791 5789 5787 5782 5777 5772 5768 5769 5770 5770 5771 5772 5771 5771 5770 5768 5766 5764 5762 5760 5759 5756 5753 5748 5748 5748 5745 5739 5730 5725 5728 5731 5731 5730 5729 5728 5726 5725 5724
5808 5803 5799 5795 5792 5791 5788 5783 5779 5775 5773 5773 5772 5770 5770 5770 5770 5770 5769 5767 5765 5763 5761 5760 5758 5756 5754 5750 5747 5745 5743 5739 5736 5728 5722 5724 5726 5727 5727 5725 5724 5722 5721
5809 5805 5801 5796 5793 5791 5788 5784 5781 5777 5775 5773 5770 5769 5768 5769 5769 5768 5767 5766 5764 5762 5760 5759 5758 5756 5754 5752 5749 5747 5742 5738 5734 5730 5724 5721 5720 5722 5723 5723 5721 5720 5718